| time (UTC) | temp F | wind direction | speed MPH | gust MPH | rain 1hr in | rain 24hr in | rain mn in | humidity % | barometer mb |
| 20260510204034 | 72 | 155 | 12.0 | 17.0 | 0.00 | 0.00 | 0.00 | 70 | 1011.2 |
| 20260510203532 | 72 | 147 | 9.0 | 16.0 | 0.00 | 0.00 | 0.00 | 71 | 1011.3 |
| 20260510203031 | 72 | 140 | 11.0 | 16.0 | 0.00 | 0.00 | 0.00 | 71 | 1011.3 |
| 20260510202531 | 72 | 142 | 9.0 | 15.0 | 0.00 | 0.00 | 0.00 | 70 | 1011.3 |
| 20260510202032 | 72 | 161 | 10.0 | 15.0 | 0.00 | 0.00 | 0.00 | 71 | 1011.3 |
| 20260510201531 | 72 | 142 | 11.0 | 14.0 | 0.00 | 0.00 | 0.00 | 73 | 1011.5 |
| 20260510201029 | 73 | 147 | 8.0 | 14.0 | 0.00 | 0.00 | 0.00 | 69 | 1011.6 |
| 20260510200532 | 72 | 136 | 10.0 | 14.0 | 0.00 | 0.00 | 0.00 | 69 | 1011.6 |
| 20260510200053 | 72 | 151 | 8.0 | 13.0 | 0.00 | 0.00 | 0.00 | 70 | 1011.7 |
| 20260510195532 | 72 | 130 | 7.0 | 14.0 | 0.00 | 0.00 | 0.00 | 72 | 1011.6 |
| 20260510195027 | 72 | 138 | 11.0 | 14.0 | 0.00 | 0.00 | 0.00 | 72 | 1011.8 |
| 20260510194527 | 72 | 140 | 9.0 | 13.0 | 0.00 | 0.00 | 0.00 | 73 | 1011.9 |
| 20260510194030 | 72 | 142 | 10.0 | 13.0 | 0.00 | 0.00 | 0.00 | 74 | 1012.0 |
| 20260510193526 | 73 | 140 | 7.0 | 11.0 | 0.00 | 0.00 | 0.00 | 70 | 1012.1 |
| 20260510193038 | 73 | 160 | 5.0 | 11.0 | 0.00 | 0.00 | 0.00 | 70 | 1012.1 |
| 20260510192524 | 73 | 161 | 7.0 | 12.0 | 0.00 | 0.00 | 0.00 | 69 | 1012.3 |
| 20260510192023 | 72 | 158 | 7.0 | 12.0 | 0.00 | 0.00 | 0.00 | 69 | 1012.4 |
| 20260510191523 | 72 | 150 | 7.0 | 11.0 | 0.00 | 0.00 | 0.00 | 71 | 1012.4 |
| 20260510191023 | 72 | 160 | 6.0 | 14.0 | 0.00 | 0.00 | 0.00 | 73 | 1012.4 |
| 20260510190520 | 71 | 138 | 8.0 | 14.0 | 0.00 | 0.00 | 0.00 | 73 | 1012.5 |
| 20260510190025 | 72 | 154 | 10.0 | 13.0 | 0.00 | 0.00 | 0.00 | 74 | 1012.4 |
| 20260510185518 | 71 | 148 | 7.0 | 13.0 | 0.00 | 0.00 | 0.00 | 74 | 1012.5 |
| 20260510185017 | 72 | 140 | 8.0 | 13.0 | 0.00 | 0.00 | 0.00 | 75 | 1012.5 |
| 20260510184516 | 73 | 146 | 8.0 | 12.0 | 0.00 | 0.00 | 0.00 | 73 | 1012.5 |
| 20260510184016 | 74 | 143 | 7.0 | 10.0 | 0.00 | 0.00 | 0.00 | 70 | 1012.3 |
| 20260510183515 | 74 | 167 | 4.0 | 9.0 | 0.00 | 0.00 | 0.00 | 67 | 1012.3 |
| 20260510183030 | 74 | 152 | 6.0 | 9.0 | 0.00 | 0.00 | 0.00 | 69 | 1012.5 |
| 20260510182512 | 74 | 154 | 5.0 | 9.0 | 0.00 | 0.00 | 0.00 | 64 | 1012.5 |
| 20260510182014 | 74 | 147 | 6.0 | 9.0 | 0.00 | 0.00 | 0.00 | 63 | 1012.5 |
| 20260510181524 | 74 | 148 | 3.0 | 6.0 | 0.00 | 0.00 | 0.00 | 60 | 1012.6 |
| 20260510181009 | 74 | 158 | 4.0 | 10.0 | 0.00 | 0.00 | 0.00 | 64 | 1012.6 |
| 20260510180507 | 74 | 158 | 7.0 | 10.0 | 0.00 | 0.00 | 0.00 | 67 | 1012.6 |
| 20260510180008 | 73 | 153 | 6.0 | 9.0 | 0.00 | 0.00 | 0.00 | 63 | 1012.6 |
| 20260510175506 | 73 | 148 | 7.0 | 9.0 | 0.00 | 0.00 | 0.00 | 70 | 1012.6 |
| 20260510175011 | 73 | 149 | 6.0 | 8.0 | 0.00 | 0.00 | 0.00 | 64 | 1012.6 |
| 20260510174504 | 73 | 143 | 5.0 | 8.0 | 0.00 | 0.00 | 0.00 | 67 | 1012.7 |
| 20260510174006 | 73 | 139 | 6.0 | 8.0 | 0.00 | 0.00 | 0.00 | 69 | 1012.7 |
| 20260510173503 | 73 | 153 | 5.0 | 7.0 | 0.00 | 0.00 | 0.00 | 63 | 1012.7 |
| 20260510173001 | 73 | 153 | 4.0 | 8.0 | 0.00 | 0.00 | 0.00 | 67 | 1012.9 |
| 20260510172600 | 72 | 153 | 5.0 | 8.0 | 0.00 | 0.00 | 0.00 | 67 | 1012.9 |
| 20260510172100 | 72 | 156 | 6.0 | 8.0 | 0.00 | 0.00 | 0.00 | 72 | 1013.0 |
| 20260510171601 | 72 | 151 | 5.0 | 7.0 | 0.00 | 0.00 | 0.00 | 72 | 1013.1 |
| 20260510171059 | 72 | 152 | 5.0 | 7.0 | 0.00 | 0.00 | 0.00 | 70 | 1013.1 |
| 20260510170600 | 72 | 148 | 5.0 | 7.0 | 0.00 | 0.00 | 0.00 | 67 | 1013.1 |
| 20260510170108 | 72 | 146 | 6.0 | 7.0 | 0.00 | 0.00 | 0.00 | 70 | 1013.1 |
| 20260510165600 | 72 | 148 | 4.0 | 6.0 | 0.00 | 0.00 | 0.00 | 67 | 1013.2 |
| 20260510165058 | 72 | 140 | 3.0 | 6.0 | 0.00 | 0.00 | 0.00 | 68 | 1013.2 |
| 20260510164558 | 72 | 147 | 4.0 | 7.0 | 0.00 | 0.00 | 0.00 | 68 | 1013.1 |
| 20260510164058 | 73 | 163 | 3.0 | 7.0 | 0.00 | 0.00 | 0.00 | 61 | 1013.3 |
| 20260510163557 | 73 | 139 | 4.0 | 7.0 | 0.00 | 0.00 | 0.00 | 60 | 1013.3 |
| 20260510163057 | 73 | 142 | 4.0 | 7.0 | 0.00 | 0.00 | 0.00 | 61 | 1013.2 |
| 20260510162556 | 73 | 139 | 3.0 | 6.0 | 0.00 | 0.00 | 0.00 | 62 | 1013.2 |
| 20260510162527 | 73 | 121 | 4.0 | 6.0 | 0.00 | 0.00 | 0.00 | 62 | 1013.2 |
| 20260510162054 | 73 | 148 | 3.0 | 6.0 | 0.00 | 0.00 | 0.00 | 62 | 1013.3 |
| 20260510161553 | 72 | 161 | 3.0 | 5.0 | 0.00 | 0.00 | 0.00 | 61 | 1013.3 |
| 20260510161052 | 72 | 146 | 3.0 | 5.0 | 0.00 | 0.00 | 0.00 | 63 | 1013.4 |
| 20260510160550 | 71 | 146 | 3.0 | 6.0 | 0.00 | 0.00 | 0.00 | 65 | 1013.3 |
| 20260510160050 | 71 | 148 | 3.0 | 6.0 | 0.00 | 0.00 | 0.00 | 65 | 1013.5 |
| 20260510155552 | 70 | 157 | 4.0 | 6.0 | 0.00 | 0.00 | 0.00 | 65 | 1013.5 |
| 20260510155049 | 70 | 146 | 4.0 | 6.0 | 0.00 | 0.00 | 0.00 | 65 | 1013.4 |
| 20260510154546 | 69 | 153 | 3.0 | 6.0 | 0.00 | 0.00 | 0.00 | 65 | 1013.5 |
| 20260510154047 | 69 | 168 | 2.0 | 4.0 | 0.00 | 0.00 | 0.00 | 65 | 1013.5 |
| 20260510153543 | 68 | 164 | 2.0 | 3.0 | 0.00 | 0.00 | 0.00 | 68 | 1013.5 |
| 20260510153044 | 68 | 164 | 2.0 | 3.0 | 0.00 | 0.00 | 0.00 | 69 | 1013.5 |
| 20260510152542 | 68 | 164 | 1.0 | 2.0 | 0.00 | 0.00 | 0.00 | 70 | 1013.5 |
| 20260510152044 | 68 | 164 | 1.0 | 2.0 | 0.00 | 0.00 | 0.00 | 70 | 1013.6 |
| 20260510151544 | 68 | 164 | 0.0 | 2.0 | 0.00 | 0.00 | 0.00 | 71 | 1013.6 |
| 20260510151042 | 68 | 164 | 0.0 | 2.0 | 0.00 | 0.00 | 0.00 | 72 | 1013.6 |
| 20260510150540 | 68 | 164 | 0.0 | 2.0 | 0.00 | 0.00 | 0.00 | 70 | 1013.5 |
| 20260510150040 | 68 | 164 | 0.0 | 1.0 | 0.00 | 0.00 | 0.00 | 70 | 1013.5 |
| 20260510145537 | 67 | 164 | 0.0 | 3.0 | 0.00 | 0.00 | 0.00 | 74 | 1013.4 |
| 20260510145036 | 67 | 164 | 1.0 | 3.0 | 0.00 | 0.00 | 0.00 | 75 | 1013.4 |
| 20260510144536 | 66 | 164 | 2.0 | 3.0 | 0.00 | 0.00 | 0.00 | 75 | 1013.3 |
| 20260510144036 | 66 | 164 | 1.0 | 2.0 | 0.00 | 0.00 | 0.00 | 77 | 1013.4 |
| 20260510143535 | 66 | 164 | 1.0 | 3.0 | 0.00 | 0.00 | 0.00 | 78 | 1013.5 |
| 20260510143037 | 65 | 164 | 2.0 | 4.0 | 0.00 | 0.00 | 0.00 | 80 | 1013.5 |
| 20260510142534 | 65 | 164 | 2.0 | 4.0 | 0.00 | 0.00 | 0.00 | 80 | 1013.5 |
| 20260510142035 | 65 | 170 | 3.0 | 5.0 | 0.00 | 0.00 | 0.00 | 82 | 1013.5 |
| 20260510141535 | 64 | 171 | 2.0 | 5.0 | 0.00 | 0.00 | 0.00 | 84 | 1013.5 |
| 20260510141034 | 64 | 180 | 3.0 | 6.0 | 0.00 | 0.00 | 0.00 | 85 | 1013.5 |
| 20260510140532 | 64 | 184 | 3.0 | 6.0 | 0.00 | 0.00 | 0.00 | 87 | 1013.4 |
| 20260510140033 | 64 | 175 | 5.0 | 6.0 | 0.00 | 0.00 | 0.00 | 87 | 1013.3 |
| 20260510135533 | 64 | 175 | 4.0 | 5.0 | 0.00 | 0.00 | 0.00 | 87 | 1013.2 |
| 20260510135033 | 64 | 182 | 4.0 | 5.0 | 0.00 | 0.00 | 0.00 | 87 | 1013.3 |
| 20260510134533 | 64 | 180 | 3.0 | 4.0 | 0.00 | 0.00 | 0.00 | 88 | 1013.2 |
| 20260510134032 | 64 | 185 | 3.0 | 4.0 | 0.00 | 0.00 | 0.00 | 88 | 1013.1 |
| 20260510133532 | 64 | 191 | 3.0 | 4.0 | 0.00 | 0.00 | 0.00 | 88 | 1013.2 |
| 20260510133039 | 64 | 201 | 3.0 | 4.0 | 0.00 | 0.00 | 0.00 | 88 | 1013.2 |
| 20260510132532 | 64 | 228 | 3.0 | 4.0 | 0.00 | 0.00 | 0.00 | 88 | 1013.3 |
| 20260510132032 | 64 | 213 | 3.0 | 5.0 | 0.00 | 0.00 | 0.00 | 89 | 1013.3 |
| 20260510131531 | 63 | 205 | 4.0 | 5.0 | 0.00 | 0.00 | 0.00 | 88 | 1013.3 |
| 20260510131030 | 64 | 198 | 3.0 | 4.0 | 0.00 | 0.00 | 0.00 | 89 | 1013.2 |
| 20260510130530 | 63 | 202 | 3.0 | 4.0 | 0.00 | 0.00 | 0.00 | 89 | 1013.2 |
| 20260510130030 | 63 | 215 | 2.0 | 4.0 | 0.00 | 0.00 | 0.00 | 89 | 1013.2 |
| 20260510125530 | 63 | 221 | 3.0 | 4.0 | 0.00 | 0.00 | 0.00 | 89 | 1013.1 |
| 20260510125028 | 64 | 217 | 3.0 | 4.0 | 0.00 | 0.00 | 0.00 | 89 | 1013.1 |
| 20260510124528 | 64 | 225 | 3.0 | 4.0 | 0.00 | 0.00 | 0.00 | 88 | 1013.1 |
| 20260510124028 | 64 | 223 | 2.0 | 4.0 | 0.00 | 0.00 | 0.00 | 88 | 1013.1 |
| 20260510123530 | 64 | 221 | 2.0 | 4.0 | 0.00 | 0.00 | 0.00 | 88 | 1013.0 |
| 20260510123028 | 63 | 242 | 2.0 | 3.0 | 0.00 | 0.00 | 0.00 | 87 | 1013.0 |
| 20260510122530 | 63 | 251 | 1.0 | 3.0 | 0.00 | 0.00 | 0.00 | 87 | 1013.0 |
| 20260510122026 | 63 | 257 | 1.0 | 3.0 | 0.00 | 0.00 | 0.00 | 87 | 1012.9 |
| 20260510121526 | 62 | 238 | 2.0 | 3.0 | 0.00 | 0.00 | 0.00 | 88 | 1012.9 |
| 20260510121025 | 62 | 238 | 0.0 | 2.0 | 0.00 | 0.00 | 0.00 | 89 | 1012.8 |
| 20260510120524 | 62 | 355 | 0.0 | 1.0 | 0.00 | 0.00 | 0.00 | 89 | 1012.7 |
| 20260510120027 | 62 | 355 | 0.0 | 1.0 | 0.00 | 0.00 | 0.00 | 89 | 1012.6 |
| 20260510115523 | 62 | 355 | 0.0 | 1.0 | 0.00 | 0.00 | 0.00 | 89 | 1012.5 |
| 20260510115023 | 62 | 355 | 0.0 | 1.0 | 0.00 | 0.00 | 0.00 | 89 | 1012.5 |
| 20260510114525 | 61 | 355 | 0.0 | 1.0 | 0.00 | 0.00 | 0.00 | 89 | 1012.4 |
| 20260510114021 | 61 | 355 | 0.0 | 2.0 | 0.00 | 0.00 | 0.00 | 89 | 1012.4 |
| 20260510113521 | 61 | 355 | 0.0 | 2.0 | 0.00 | 0.00 | 0.00 | 89 | 1012.3 |
| 20260510113023 | 61 | 355 | 0.0 | 3.0 | 0.00 | 0.00 | 0.00 | 89 | 1012.3 |
| 20260510112520 | 61 | 355 | 2.0 | 3.0 | 0.00 | 0.00 | 0.00 | 89 | 1012.2 |
| 20260510112021 | 61 | 317 | 1.0 | 3.0 | 0.00 | 0.00 | 0.00 | 89 | 1012.2 |
| 20260510111519 | 61 | 284 | 1.0 | 3.0 | 0.00 | 0.00 | 0.00 | 90 | 1012.1 |
| 20260510111018 | 61 | 292 | 2.0 | 3.0 | 0.00 | 0.00 | 0.00 | 90 | 1012.0 |
| 20260510110522 | 61 | 290 | 2.0 | 3.0 | 0.00 | 0.00 | 0.00 | 90 | 1012.0 |
| 20260510110020 | 61 | 325 | 0.0 | 1.0 | 0.00 | 0.00 | 0.00 | 90 | 1012.0 |
| 20260510105516 | 61 | 325 | 0.0 | 2.0 | 0.00 | 0.00 | 0.00 | 90 | 1011.9 |
| 20260510105019 | 61 | 325 | 0.0 | 4.0 | 0.00 | 0.00 | 0.00 | 89 | 1011.8 |
| 20260510104514 | 61 | 321 | 1.0 | 6.0 | 0.00 | 0.00 | 0.00 | 90 | 1011.7 |
| 20260510104013 | 61 | 324 | 3.0 | 6.0 | 0.00 | 0.00 | 0.00 | 90 | 1011.6 |
| 20260510103512 | 61 | 338 | 4.0 | 8.0 | 0.00 | 0.00 | 0.00 | 90 | 1011.5 |
| 20260510103011 | 61 | 337 | 4.0 | 10.0 | 0.00 | 0.00 | 0.00 | 90 | 1011.4 |
| 20260510102511 | 61 | 339 | 7.0 | 10.0 | 0.00 | 0.00 | 0.00 | 90 | 1011.4 |
| 20260510102012 | 62 | 333 | 7.0 | 9.0 | 0.00 | 0.00 | 0.00 | 90 | 1011.3 |
| 20260510101509 | 62 | 344 | 6.0 | 9.0 | 0.00 | 0.00 | 0.00 | 90 | 1011.2 |
| 20260510101008 | 62 | 329 | 6.0 | 7.0 | 0.00 | 0.00 | 0.00 | 90 | 1011.2 |
| 20260510100507 | 62 | 337 | 4.0 | 7.0 | 0.00 | 0.00 | 0.00 | 90 | 1011.0 |
| 20260510100008 | 62 | 330 | 5.0 | 8.0 | 0.00 | 0.00 | 0.00 | 89 | 1011.0 |
| 20260510095505 | 62 | 333 | 5.0 | 8.0 | 0.00 | 0.00 | 0.00 | 89 | 1010.9 |
| 20260510095004 | 62 | 333 | 5.0 | 7.0 | 0.00 | 0.00 | 0.00 | 89 | 1010.9 |
| 20260510094509 | 62 | 327 | 6.0 | 7.0 | 0.00 | 0.00 | 0.00 | 89 | 1010.8 |
| 20260510094002 | 62 | 321 | 6.0 | 8.0 | 0.00 | 0.00 | 0.00 | 88 | 1010.7 |
| 20260510093501 | 63 | 326 | 6.0 | 8.0 | 0.00 | 0.00 | 0.00 | 88 | 1010.7 |
| 20260510093100 | 63 | 321 | 6.0 | 8.0 | 0.00 | 0.00 | 0.00 | 88 | 1010.7 |
| 20260510092600 | 63 | 325 | 6.0 | 8.0 | 0.00 | 0.00 | 0.00 | 88 | 1010.7 |
| 20260510092058 | 63 | 317 | 5.0 | 7.0 | 0.00 | 0.00 | 0.00 | 88 | 1010.6 |
| 20260510091601 | 63 | 324 | 4.0 | 6.0 | 0.00 | 0.00 | 0.00 | 88 | 1010.5 |
| 20260510091057 | 63 | 325 | 3.0 | 5.0 | 0.00 | 0.00 | 0.00 | 87 | 1010.5 |
| 20260510090557 | 63 | 331 | 3.0 | 5.0 | 0.00 | 0.00 | 0.00 | 87 | 1010.5 |
| 20260510090101 | 64 | 318 | 3.0 | 4.0 | 0.00 | 0.00 | 0.00 | 87 | 1010.5 |
| 20260510085559 | 64 | 293 | 2.0 | 5.0 | 0.00 | 0.00 | 0.00 | 86 | 1010.5 |
| 20260510085055 | 64 | 300 | 3.0 | 6.0 | 0.00 | 0.00 | 0.00 | 86 | 1010.4 |
| 20260510084558 | 64 | 306 | 4.0 | 7.0 | 0.00 | 0.00 | 0.00 | 86 | 1010.4 |
| 20260510084054 | 64 | 304 | 4.0 | 7.0 | 0.00 | 0.00 | 0.00 | 86 | 1010.2 |
| 20260510083554 | 64 | 335 | 4.0 | 7.0 | 0.00 | 0.00 | 0.00 | 86 | 1010.2 |
| 20260510083056 | 64 | 333 | 3.0 | 7.0 | 0.00 | 0.00 | 0.00 | 86 | 1010.1 |
| 20260510082552 | 65 | 329 | 3.0 | 7.0 | 0.00 | 0.00 | 0.00 | 85 | 1010.1 |
| 20260510082054 | 65 | 305 | 5.0 | 7.0 | 0.00 | 0.00 | 0.00 | 85 | 1010.1 |
| 20260510081553 | 65 | 300 | 5.0 | 6.0 | 0.00 | 0.00 | 0.00 | 85 | 1010.1 |
| 20260510081052 | 65 | 294 | 4.0 | 6.0 | 0.00 | 0.00 | 0.00 | 85 | 1010.1 |
| 20260510080552 | 65 | 294 | 3.0 | 4.0 | 0.00 | 0.00 | 0.00 | 85 | 1010.0 |
| 20260510080051 | 65 | 306 | 2.0 | 4.0 | 0.00 | 0.00 | 0.00 | 85 | 1009.9 |
| 20260510075550 | 65 | 316 | 2.0 | 5.0 | 0.00 | 0.00 | 0.00 | 84 | 1009.9 |
| 20260510075050 | 65 | 309 | 2.0 | 5.0 | 0.00 | 0.00 | 0.00 | 84 | 1009.9 |
| 20260510074551 | 65 | 311 | 3.0 | 4.0 | 0.00 | 0.00 | 0.00 | 84 | 1009.9 |
| 20260510074051 | 66 | 281 | 2.0 | 4.0 | 0.00 | 0.00 | 0.00 | 84 | 1009.9 |
| 20260510073550 | 66 | 282 | 2.0 | 5.0 | 0.00 | 0.00 | 0.00 | 84 | 1009.9 |
| 20260510073104 | 66 | 288 | 3.0 | 5.0 | 0.00 | 0.00 | 0.00 | 84 | 1009.9 |
| 20260510072549 | 66 | 319 | 3.0 | 7.0 | 0.00 | 0.00 | 0.00 | 83 | 1009.9 |
| 20260510072048 | 66 | 284 | 4.0 | 7.0 | 0.00 | 0.00 | 0.00 | 83 | 1009.8 |
| 20260510071558 | 66 | 299 | 4.0 | 6.0 | 0.00 | 0.00 | 0.00 | 84 | 1009.9 |
| 20260510071050 | 66 | 261 | 3.0 | 6.0 | 0.00 | 0.00 | 0.00 | 83 | 1009.8 |
| 20260510070549 | 66 | 290 | 3.0 | 6.0 | 0.00 | 0.00 | 0.00 | 84 | 1009.9 |
| 20260510070049 | 66 | 288 | 4.0 | 6.0 | 0.00 | 0.00 | 0.00 | 84 | 1009.9 |
| 20260510065550 | 66 | 274 | 3.0 | 5.0 | 0.00 | 0.00 | 0.00 | 85 | 1009.9 |
| 20260510065047 | 66 | 254 | 3.0 | 6.0 | 0.00 | 0.00 | 0.00 | 84 | 1009.8 |
| 20260510064555 | 66 | 258 | 4.0 | 6.0 | 0.00 | 0.00 | 0.00 | 85 | 1009.8 |
| 20260510064049 | 66 | 292 | 2.0 | 5.0 | 0.00 | 0.00 | 0.00 | 86 | 1009.9 |
| 20260510063548 | 66 | 320 | 2.0 | 5.0 | 0.00 | 0.00 | 0.00 | 86 | 1009.9 |
| 20260510063048 | 66 | 251 | 2.0 | 5.0 | 0.00 | 0.00 | 0.00 | 86 | 1009.8 |
| 20260510062547 | 65 | 220 | 3.0 | 5.0 | 0.00 | 0.00 | 0.00 | 87 | 1009.9 |
| 20260510062049 | 65 | 209 | 3.0 | 5.0 | 0.00 | 0.00 | 0.00 | 88 | 1009.9 |
| 20260510061549 | 64 | 137 | 1.0 | 2.0 | 0.00 | 0.00 | 0.00 | 87 | 1009.8 |
| 20260510061048 | 64 | 104 | 1.0 | 2.0 | 0.00 | 0.00 | 0.00 | 86 | 1009.8 |
| 20260510060544 | 64 | 92 | 0.0 | 2.0 | 0.00 | 0.00 | 0.00 | 85 | 1009.8 |
| 20260510060044 | 64 | 93 | 1.0 | 2.0 | 0.00 | 0.00 | 0.00 | 85 | 1009.9 |
| 20260510055546 | 64 | 92 | 0.0 | 2.0 | 0.00 | 0.00 | 0.00 | 85 | 1009.9 |
| 20260510055048 | 64 | 92 | 0.0 | 2.0 | 0.00 | 0.00 | 0.00 | 85 | 1009.9 |
| 20260510054543 | 64 | 91 | 1.0 | 2.0 | 0.00 | 0.00 | 0.00 | 84 | 1009.9 |
| 20260510054043 | 64 | 91 | 1.0 | 2.0 | 0.00 | 0.00 | 0.00 | 84 | 1009.8 |
| 20260510053542 | 64 | 91 | 1.0 | 2.0 | 0.00 | 0.00 | 0.00 | 84 | 1009.8 |
| 20260510053042 | 64 | 92 | 1.0 | 2.0 | 0.00 | 0.00 | 0.00 | 84 | 1009.9 |
| 20260510052542 | 64 | 92 | 0.0 | 3.0 | 0.00 | 0.00 | 0.00 | 84 | 1009.9 |
| 20260510052044 | 64 | 91 | 0.0 | 3.0 | 0.00 | 0.00 | 0.00 | 83 | 1009.9 |
| 20260510051544 | 64 | 85 | 0.0 | 3.0 | 0.00 | 0.00 | 0.00 | 83 | 1009.9 |
| 20260510051041 | 64 | 120 | 1.0 | 3.0 | 0.00 | 0.00 | 0.00 | 83 | 1009.9 |
| 20260510050542 | 64 | 111 | 1.0 | 3.0 | 0.00 | 0.00 | 0.00 | 83 | 1009.9 |
| 20260510050043 | 64 | 111 | 1.0 | 3.0 | 0.00 | 0.00 | 0.00 | 83 | 1010.0 |
| 20260510045540 | 64 | 111 | 1.0 | 3.0 | 0.00 | 0.00 | 0.00 | 83 | 1009.9 |
| 20260510045042 | 64 | 101 | 1.0 | 2.0 | 0.00 | 0.00 | 0.00 | 82 | 1010.0 |
| 20260510044548 | 64 | 101 | 1.0 | 2.0 | 0.00 | 0.00 | 0.00 | 82 | 1010.0 |
| 20260510044039 | 65 | 101 | 1.0 | 2.0 | 0.00 | 0.00 | 0.00 | 82 | 1010.0 |
| 20260510043538 | 65 | 101 | 0.0 | 2.0 | 0.00 | 0.00 | 0.00 | 82 | 1009.9 |
| 20260510043037 | 65 | 101 | 1.0 | 2.0 | 0.00 | 0.00 | 0.00 | 81 | 1009.9 |
| 20260510042537 | 65 | 101 | 1.0 | 2.0 | 0.00 | 0.00 | 0.00 | 81 | 1009.9 |
| 20260510042034 | 65 | 101 | 1.0 | 3.0 | 0.00 | 0.00 | 0.00 | 80 | 1009.9 |
| 20260510041534 | 66 | 114 | 1.0 | 3.0 | 0.00 | 0.00 | 0.00 | 79 | 1009.9 |
| 20260510041033 | 66 | 105 | 1.0 | 5.0 | 0.00 | 0.00 | 0.00 | 79 | 1009.8 |
| 20260510040532 | 66 | 123 | 2.0 | 5.0 | 0.00 | 0.00 | 0.00 | 79 | 1009.8 |
| 20260510040032 | 66 | 119 | 2.0 | 5.0 | 0.00 | 0.00 | 0.00 | 78 | 1009.8 |
| 20260510035531 | 67 | 97 | 2.0 | 4.0 | 0.00 | 0.00 | 0.00 | 78 | 1009.8 |
| 20260510035031 | 67 | 119 | 2.0 | 3.0 | 0.00 | 0.00 | 0.00 | 78 | 1009.8 |
| 20260510034535 | 67 | 146 | 2.0 | 3.0 | 0.00 | 0.00 | 0.00 | 78 | 1009.8 |
| 20260510034033 | 66 | 119 | 1.0 | 4.0 | 0.00 | 0.00 | 0.00 | 79 | 1009.7 |
| 20260510033530 | 66 | 148 | 2.0 | 4.0 | 0.00 | 0.00 | 0.00 | 79 | 1009.8 |
| 20260510033031 | 67 | 135 | 2.0 | 4.0 | 0.00 | 0.00 | 0.00 | 79 | 1009.6 |
| 20260510032534 | 67 | 138 | 2.0 | 4.0 | 0.00 | 0.00 | 0.00 | 79 | 1009.6 |
| 20260510032032 | 67 | 134 | 2.0 | 4.0 | 0.00 | 0.00 | 0.00 | 79 | 1009.6 |
| 20260510031533 | 67 | 128 | 2.0 | 5.0 | 0.00 | 0.00 | 0.00 | 79 | 1009.5 |
| 20260510031029 | 67 | 103 | 2.0 | 5.0 | 0.00 | 0.00 | 0.00 | 79 | 1009.6 |
| 20260510030529 | 67 | 117 | 2.0 | 5.0 | 0.00 | 0.00 | 0.00 | 80 | 1009.4 |
| 20260510030030 | 66 | 110 | 3.0 | 7.0 | 0.00 | 0.00 | 0.00 | 81 | 1009.3 |
| 20260510025529 | 66 | 117 | 4.0 | 7.0 | 0.00 | 0.00 | 0.00 | 83 | 1009.3 |
| 20260510025030 | 66 | 107 | 4.0 | 7.0 | 0.00 | 0.00 | 0.00 | 84 | 1009.3 |
| 20260510024529 | 66 | 109 | 3.0 | 7.0 | 0.00 | 0.00 | 0.00 | 85 | 1009.3 |
| 20260510024029 | 66 | 109 | 2.0 | 5.0 | 0.00 | 0.00 | 0.00 | 86 | 1009.3 |
| 20260510023529 | 66 | 96 | 2.0 | 5.0 | 0.00 | 0.00 | 0.00 | 86 | 1009.1 |
| 20260510023031 | 66 | 126 | 1.0 | 7.0 | 0.00 | 0.00 | 0.00 | 86 | 1009.1 |
| 20260510022530 | 66 | 108 | 2.0 | 7.0 | 0.00 | 0.00 | 0.00 | 85 | 1009.1 |
| 20260510022029 | 67 | 121 | 1.0 | 5.0 | 0.00 | 0.00 | 0.00 | 84 | 1009.1 |
| 20260510021535 | 67 | 124 | 1.0 | 7.0 | 0.00 | 0.00 | 0.00 | 83 | 1009.1 |
| 20260510021028 | 67 | 98 | 3.0 | 8.0 | 0.00 | 0.00 | 0.00 | 81 | 1009.1 |
| 20260510020528 | 67 | 80 | 3.0 | 8.0 | 0.00 | 0.00 | 0.00 | 81 | 1009.0 |
| 20260510020028 | 67 | 95 | 3.0 | 5.0 | 0.00 | 0.00 | 0.00 | 81 | 1008.9 |
| 20260510015527 | 68 | 103 | 2.0 | 6.0 | 0.00 | 0.00 | 0.00 | 80 | 1008.9 |
| 20260510015031 | 68 | 119 | 3.0 | 6.0 | 0.00 | 0.00 | 0.00 | 79 | 1008.9 |
| 20260510014527 | 68 | 109 | 4.0 | 7.0 | 0.00 | 0.00 | 0.00 | 75 | 1008.8 |
| 20260510014029 | 69 | 111 | 3.0 | 7.0 | 0.00 | 0.00 | 0.00 | 76 | 1008.8 |
| 20260510013528 | 69 | 101 | 4.0 | 7.0 | 0.00 | 0.00 | 0.00 | 74 | 1008.7 |
| 20260510013027 | 69 | 105 | 3.0 | 8.0 | 0.00 | 0.00 | 0.00 | 73 | 1008.8 |
| 20260510012526 | 69 | 118 | 3.0 | 7.0 | 0.00 | 0.00 | 0.00 | 75 | 1008.7 |
| 20260510012026 | 69 | 150 | 2.0 | 7.0 | 0.00 | 0.00 | 0.00 | 76 | 1008.7 |
| 20260510011530 | 69 | 111 | 3.0 | 7.0 | 0.00 | 0.00 | 0.00 | 76 | 1008.6 |
| 20260510011027 | 69 | 90 | 3.0 | 7.0 | 0.00 | 0.00 | 0.00 | 76 | 1008.7 |
| 20260510010526 | 68 | 120 | 4.0 | 7.0 | 0.00 | 0.00 | 0.00 | 76 | 1008.5 |
| 20260510010026 | 68 | 100 | 3.0 | 7.0 | 0.00 | 0.00 | 0.00 | 76 | 1008.4 |
| 20260510005526 | 68 | 118 | 2.0 | 5.0 | 0.00 | 0.00 | 0.00 | 76 | 1008.4 |
| 20260510005025 | 68 | 114 | 2.0 | 4.0 | 0.00 | 0.00 | 0.00 | 76 | 1008.4 |
| 20260510004526 | 68 | 126 | 2.0 | 6.0 | 0.00 | 0.00 | 0.00 | 77 | 1008.3 |
| 20260510004025 | 68 | 89 | 2.0 | 6.0 | 0.00 | 0.00 | 0.00 | 77 | 1008.3 |
| 20260510003526 | 68 | 115 | 2.0 | 5.0 | 0.00 | 0.00 | 0.00 | 76 | 1008.2 |
| 20260510003027 | 68 | 102 | 2.0 | 5.0 | 0.00 | 0.00 | 0.00 | 76 | 1008.1 |
| 20260510002525 | 68 | 98 | 1.0 | 4.0 | 0.00 | 0.00 | 0.00 | 76 | 1008.2 |
| 20260510002024 | 68 | 98 | 1.0 | 5.0 | 0.00 | 0.00 | 0.00 | 76 | 1008.1 |
| 20260510001525 | 68 | 136 | 1.0 | 5.0 | 0.00 | 0.00 | 0.00 | 76 | 1008.0 |
| 20260510001026 | 68 | 107 | 1.0 | 3.0 | 0.00 | 0.00 | 0.00 | 77 | 1008.0 |
| 20260510000525 | 68 | 113 | 1.0 | 2.0 | 0.00 | 0.00 | 0.00 | 77 | 1007.9 |
| 20260510000025 | 68 | 117 | 0.0 | 2.0 | 0.00 | 0.00 | 0.00 | 78 | 1007.9 |
| 20260509235524 | 69 | 117 | 0.0 | 2.0 | 0.00 | 0.00 | 0.00 | 79 | 1007.9 |
| 20260509235026 | 69 | 117 | 0.0 | 2.0 | 0.00 | 0.00 | 0.00 | 80 | 1007.8 |
| 20260509234532 | 69 | 122 | 0.0 | 2.0 | 0.00 | 0.00 | 0.00 | 80 | 1007.8 |
| 20260509234024 | 69 | 132 | 0.0 | 3.0 | 0.00 | 0.00 | 0.00 | 81 | 1007.7 |
| 20260509233523 | 69 | 132 | 0.0 | 3.0 | 0.00 | 0.00 | 0.00 | 82 | 1007.8 |
| 20260509233023 | 69 | 118 | 0.0 | 3.0 | 0.00 | 0.00 | 0.00 | 82 | 1007.7 |
| 20260509232523 | 69 | 131 | 1.0 | 3.0 | 0.00 | 0.00 | 0.00 | 82 | 1007.6 |
| 20260509232023 | 69 | 139 | 1.0 | 3.0 | 0.00 | 0.00 | 0.00 | 82 | 1007.7 |
| 20260509231523 | 69 | 143 | 1.0 | 3.0 | 0.00 | 0.00 | 0.00 | 81 | 1007.7 |
| 20260509231023 | 69 | 149 | 0.0 | 2.0 | 0.00 | 0.00 | 0.00 | 80 | 1007.6 |
| 20260509230523 | 70 | 149 | 1.0 | 2.0 | 0.00 | 0.00 | 0.00 | 80 | 1007.6 |
| 20260509230023 | 70 | 155 | 0.0 | 2.0 | 0.00 | 0.00 | 0.00 | 79 | 1007.7 |
| 20260509225523 | 70 | 155 | 1.0 | 2.0 | 0.00 | 0.00 | 0.00 | 79 | 1007.7 |
| 20260509225025 | 70 | 150 | 0.0 | 2.0 | 0.00 | 0.00 | 0.00 | 79 | 1007.7 |
| 20260509224525 | 70 | 151 | 1.0 | 4.0 | 0.00 | 0.00 | 0.00 | 80 | 1007.7 |
| 20260509224022 | 70 | 153 | 1.0 | 4.0 | 0.00 | 0.00 | 0.00 | 79 | 1007.7 |
| 20260509223522 | 70 | 163 | 1.0 | 3.0 | 0.00 | 0.00 | 0.00 | 79 | 1007.7 |
| 20260509223025 | 71 | 167 | 1.0 | 3.0 | 0.00 | 0.00 | 0.00 | 80 | 1007.8 |
| 20260509222524 | 71 | 171 | 1.0 | 3.0 | 0.00 | 0.00 | 0.00 | 80 | 1007.7 |
| 20260509222021 | 70 | 188 | 1.0 | 3.0 | 0.00 | 0.00 | 0.00 | 79 | 1007.7 |
| 20260509221523 | 70 | 184 | 1.0 | 3.0 | 0.00 | 0.00 | 0.00 | 80 | 1007.8 |
| 20260509221021 | 70 | 186 | 1.0 | 3.0 | 0.00 | 0.00 | 0.00 | 80 | 1007.7 |
| 20260509220521 | 70 | 170 | 1.0 | 2.0 | 0.00 | 0.00 | 0.00 | 81 | 1007.8 |
| 20260509220025 | 69 | 171 | 0.0 | 2.0 | 0.00 | 0.00 | 0.00 | 81 | 1007.9 |
| 20260509215521 | 69 | 165 | 1.0 | 2.0 | 0.00 | 0.00 | 0.00 | 81 | 1007.8 |
| 20260509215020 | 69 | 144 | 0.0 | 5.0 | 0.00 | 0.00 | 0.00 | 82 | 1007.8 |
| 20260509214520 | 69 | 159 | 3.0 | 5.0 | 0.00 | 0.00 | 0.00 | 82 | 1007.7 |
| 20260509214020 | 69 | 155 | 3.0 | 5.0 | 0.00 | 0.00 | 0.00 | 82 | 1007.7 |
| 20260509213520 | 69 | 159 | 2.0 | 4.0 | 0.00 | 0.00 | 0.00 | 82 | 1007.6 |
| 20260509213120 | 69 | 160 | 1.0 | 7.0 | 0.00 | 0.00 | 0.00 | 83 | 1007.6 |
| 20260509212518 | 68 | 146 | 4.0 | 11.0 | 0.00 | 0.00 | 0.00 | 83 | 1007.6 |
| 20260509212017 | 68 | 157 | 5.0 | 11.0 | 0.00 | 0.00 | 0.00 | 82 | 1007.7 |
| 20260509211515 | 69 | 155 | 5.0 | 10.0 | 0.00 | 0.00 | 0.00 | 82 | 1007.6 |
| 20260509211014 | 69 | 161 | 4.0 | 8.0 | 0.00 | 0.00 | 0.00 | 81 | 1007.6 |
| 20260509210513 | 69 | 169 | 5.0 | 9.0 | 0.00 | 0.00 | 0.00 | 80 | 1007.5 |
| 20260509210015 | 69 | 157 | 5.0 | 10.0 | 0.00 | 0.00 | 0.00 | 80 | 1007.5 |
| 20260509205514 | 69 | 156 | 6.0 | 10.0 | 0.00 | 0.00 | 0.00 | 80 | 1007.5 |
| 20260509205012 | 68 | 151 | 7.0 | 10.0 | 0.00 | 0.00 | 0.00 | 80 | 1007.5 |
| 20260509204514 | 68 | 159 | 3.0 | 9.0 | 0.00 | 0.00 | 0.00 | 79 | 1007.5 |